Flag for Germany Weather past 2 weeks in Weil am Rhein, Baden-Württemberg, Germany

Now
46 °F

Overcast.


Feels Like: 46 °F
Forecast: 35 / 65 °F
Wind: 2 mph from Southwest

Location: Bale-Mulhouse


UV Index: 3 (Moderate)

Visibility: 6 mi


Pressure: 29.83 "Hg

Humidity: 85%

Dew point: 42 °F

Location of Weil am RheinLocation

Historic Weather in Weil am Rhein

°F

Weil am Rhein temperature yesterday

Maximum temperature yesterday: 53 °F (at 1:00 PM)
Minimum temperature yesterday: 41 °F (at 9:00 PM)
Average temperature yesterday: 46 °F

Past Weeks' High & Low Weather Summary

 TemperatureHumidityPressure
High73 °F (Apr 7, 7:00 PM)98% (Apr 19, 6:00 AM)30.37 "Hg (Apr 19, 6:00 AM)
Low27 °F (Apr 16, 7:00 AM)24% (Apr 17, 6:00 PM)29.75 "Hg (Apr 4, 8:00 PM)
Average52 °F63%30.10 "Hg
* Reported Apr 4 8:00 PM — Apr 19 8:00 PM, Weil am Rhein, Weather by CustomWeather, © 2014

Note: Actual official high and low records may vary slightly from our data, if they occured in-between our weather recording intervals... More about our weather records

Advertising

Historic Weather Conditions — Data for Previous 24 hours

 ConditionsComfort  
Time TempWeatherWind HumidityBarometerVisibility
8:00 PM
Apr 19
47 °FOvercast.3 mph83%29.82 "Hg9 mi
7:00 PM47 °FOvercast.5 mph79%29.82 "Hg9 mi
6:00 PM47 °FOvercast.6 mph79%29.82 "Hg9 mi
5:00 PM46 °FOvercast.7 mph77%29.83 "Hg9 mi
4:00 PM46 °FOvercast.7 mph79%29.84 "Hg7 mi
3:00 PM45 °FOvercast.8 mph82%29.85 "Hg7 mi
2:00 PM44 °FOvercast.8 mph84%29.86 "Hg7 mi
1:00 PM44 °FOvercast.10 mph84%29.87 "Hg7 mi
12:00 PM43 °FOvercast.6 mph86%29.87 "Hg7 mi
11:00 AM42 °FLow clouds.6 mph89%29.87 "Hg6 mi
10:00 AM41 °FLow clouds.9 mph92%29.88 "Hg5 mi
9:00 AM40 °FLow clouds.10 mph94%29.89 "Hg4 mi
8:00 AM38 °FFog.6 mph96%29.90 "Hg3 mi
7:00 AM36 °FFog.2 mph98%29.91 "Hg3 mi
6:00 AM35 °FFog.1 mph98%29.92 "Hg3 mi
5:00 AM33 °FLow clouds.1 mph97%29.92 "Hg3 mi
4:00 AM32 °FLow clouds.3 mph97%29.93 "Hg4 mi
3:00 AM31 °FChilly.2 mph96%29.94 "Hg1 mi
2:00 AM33 °FChilly.1 mph95%29.96 "Hg2 mi
1:00 AM35 °FChilly.No wind95%29.97 "Hg1 mi
12:00 AM36 °FPassing clouds.3 mph93%29.98 "Hg12 mi
10:00 PM
Apr 18
41 °FOvercast.8 mph87%29.98 "Hg19 mi
9:00 PM41 °FSprinkles. Overcast.10 mph85%29.97 "Hg7 mi
Weather by CustomWeather, © 2014

See weather overview